TimeEDT,TemperatureF,Dew PointF,Humidity,Sea Level PressureIn,VisibilityMPH,Wind Direction,Wind SpeedMPH,Gust SpeedMPH,PrecipitationIn,Events,Conditions,WindDirDegrees,DateUTC
12:15 AM,66.2,48.2,52,29.89,10.0,WSW,6.9,-,N/A,,Mostly Cloudy,250,2014-04-22 04:15:00
12:50 AM,68.0,48.2,49,29.88,10.0,West,9.2,-,N/A,,Overcast,260,2014-04-22 04:50:00
1:15 AM,64.4,50.0,59,29.89,10.0,NW,6.9,-,N/A,,Overcast,310,2014-04-22 05:15:00
1:35 AM,64.4,50.0,59,29.89,10.0,WNW,5.8,-,N/A,,Overcast,300,2014-04-22 05:35:00
1:55 AM,64.4,50.0,59,29.89,10.0,WNW,4.6,-,N/A,,Overcast,300,2014-04-22 05:55:00
2:15 AM,64.4,50.0,59,29.88,10.0,Calm,Calm,-,N/A,,Overcast,0,2014-04-22 06:15:00
2:35 AM,62.6,50.0,63,29.87,10.0,NW,3.5,-,N/A,,Overcast,310,2014-04-22 06:35:00
2:55 AM,60.8,51.8,72,29.87,10.0,West,5.8,-,N/A,,Overcast,280,2014-04-22 06:55:00
3:15 AM,62.6,51.8,68,29.86,10.0,NW,4.6,-,N/A,,Overcast,310,2014-04-22 07:15:00
3:35 AM,62.6,51.8,68,29.85,10.0,NW,3.5,-,N/A,,Overcast,310,2014-04-22 07:35:00
3:55 AM,60.8,51.8,72,29.86,10.0,NW,6.9,-,N/A,Rain,Rain,320,2014-04-22 07:55:00
4:15 AM,60.8,51.8,72,29.85,10.0,NW,3.5,-,N/A,,Overcast,310,2014-04-22 08:15:00
4:35 AM,60.8,53.6,77,29.85,10.0,WNW,3.5,-,N/A,,Overcast,300,2014-04-22 08:35:00
4:55 AM,59.0,53.6,82,29.86,10.0,NW,3.5,-,N/A,Rain,Light Rain,320,2014-04-22 08:55:00
5:15 AM,59.0,53.6,82,29.86,10.0,NW,3.5,-,0.01,Rain,Rain,310,2014-04-22 09:15:00
5:35 AM,57.2,55.4,94,29.85,5.0,Calm,Calm,-,0.09,Rain,Light Rain,0,2014-04-22 09:35:00
6:15 AM,57.2,55.4,94,29.85,10.0,West,3.5,-,N/A,,Overcast,260,2014-04-22 10:15:00
6:35 AM,57.2,55.4,94,29.84,7.0,SW,3.5,-,N/A,,Overcast,230,2014-04-22 10:35:00
6:55 AM,57.2,55.4,94,29.84,10.0,WSW,3.5,-,N/A,,Overcast,240,2014-04-22 10:55:00
7:15 AM,57.2,55.4,94,29.84,7.0,WSW,4.6,-,N/A,,Overcast,240,2014-04-22 11:15:00
7:35 AM,57.2,55.4,94,29.84,10.0,West,5.8,-,N/A,,Mostly Cloudy,260,2014-04-22 11:35:00
7:55 AM,59.0,55.4,88,29.85,10.0,WSW,5.8,-,N/A,,Mostly Cloudy,250,2014-04-22 11:55:00
8:15 AM,59.0,55.4,88,29.85,10.0,West,6.9,-,N/A,,Overcast,260,2014-04-22 12:15:00
8:35 AM,59.0,55.4,88,29.85,10.0,West,5.8,-,N/A,,Overcast,270,2014-04-22 12:35:00
8:55 AM,60.8,57.2,88,29.85,10.0,West,6.9,-,N/A,,Overcast,270,2014-04-22 12:55:00
9:15 AM,60.8,57.2,88,29.85,10.0,WNW,5.8,-,N/A,,Overcast,290,2014-04-22 13:15:00
9:35 AM,60.8,57.2,88,29.85,10.0,WNW,5.8,-,N/A,,Overcast,290,2014-04-22 13:35:00
9:55 AM,60.8,57.2,88,29.85,10.0,West,8.1,-,N/A,,Overcast,280,2014-04-22 13:55:00
10:15 AM,62.6,59.0,88,29.85,10.0,West,6.9,-,N/A,,Overcast,270,2014-04-22 14:15:00
10:35 AM,62.6,57.2,82,29.86,10.0,West,6.9,-,N/A,,Overcast,280,2014-04-22 14:35:00
10:55 AM,62.6,57.2,82,29.86,10.0,WNW,6.9,-,N/A,,Overcast,300,2014-04-22 14:55:00
11:15 AM,62.6,57.2,82,29.86,10.0,WNW,6.9,-,N/A,,Overcast,300,2014-04-22 15:15:00
11:35 AM,64.4,59.0,83,29.86,10.0,WNW,10.4,-,N/A,,Overcast,300,2014-04-22 15:35:00
11:55 AM,66.2,59.0,78,29.86,10.0,WNW,8.1,-,N/A,,Mostly Cloudy,300,2014-04-22 15:55:00
12:15 PM,64.4,59.0,83,29.86,10.0,WNW,9.2,-,N/A,,Overcast,300,2014-04-22 16:15:00
12:35 PM,68.0,57.2,68,29.85,10.0,WNW,10.4,17.3,N/A,,Overcast,290,2014-04-22 16:35:00
12:55 PM,68.0,59.0,73,29.84,10.0,WNW,12.7,17.3,N/A,,Mostly Cloudy,300,2014-04-22 16:55:00
1:15 PM,68.0,59.0,73,29.85,10.0,NNW,9.2,19.6,N/A,,Overcast,330,2014-04-22 17:15:00
1:35 PM,68.0,57.2,68,29.84,10.0,NW,10.4,-,N/A,,Mostly Cloudy,310,2014-04-22 17:35:00
1:55 PM,69.8,57.2,64,29.84,10.0,NW,8.1,17.3,N/A,,Mostly Cloudy,320,2014-04-22 17:55:00
2:15 PM,68.0,55.4,64,29.83,10.0,NW,11.5,19.6,N/A,,Scattered Clouds,320,2014-04-22 18:15:00
2:35 PM,69.8,55.4,60,29.83,10.0,NW,10.4,19.6,N/A,,Scattered Clouds,320,2014-04-22 18:35:00
2:55 PM,71.6,55.4,57,29.83,10.0,NW,10.4,-,N/A,,Mostly Cloudy,310,2014-04-22 18:55:00
3:15 PM,69.8,55.4,60,29.82,10.0,WNW,13.8,20.7,N/A,,Mostly Cloudy,300,2014-04-22 19:15:00
3:35 PM,69.8,51.8,53,29.82,10.0,NNW,15.0,21.9,N/A,,Mostly Cloudy,330,2014-04-22 19:35:00
3:55 PM,69.8,53.6,56,29.82,10.0,NW,16.1,19.6,N/A,,Mostly Cloudy,320,2014-04-22 19:55:00
4:15 PM,69.8,51.8,53,29.81,10.0,NNW,12.7,21.9,N/A,,Mostly Cloudy,340,2014-04-22 20:15:00
4:35 PM,71.6,50.0,46,29.81,10.0,NW,10.4,18.4,N/A,,Scattered Clouds,310,2014-04-22 20:35:00
4:55 PM,71.6,46.4,41,29.81,10.0,NW,10.4,20.7,N/A,,Scattered Clouds,320,2014-04-22 20:55:00
5:15 PM,69.8,46.4,43,29.81,10.0,NW,13.8,19.6,N/A,,Clear,320,2014-04-22 21:15:00
5:35 PM,69.8,44.6,40,29.81,10.0,NW,11.5,-,N/A,,Scattered Clouds,320,2014-04-22 21:35:00
5:55 PM,69.8,44.6,40,29.82,10.0,NNW,10.4,18.4,N/A,,Clear,340,2014-04-22 21:55:00
6:15 PM,69.8,41.0,35,29.82,10.0,NW,11.5,16.1,N/A,,Clear,320,2014-04-22 22:15:00
6:35 PM,68.0,37.4,33,29.83,10.0,North,11.5,19.6,N/A,,Clear,350,2014-04-22 22:35:00
6:55 PM,68.0,35.6,30,29.83,10.0,NNW,10.4,18.4,N/A,,Clear,340,2014-04-22 22:55:00
7:15 PM,66.2,33.8,30,29.84,10.0,North,9.2,20.7,N/A,,Clear,350,2014-04-22 23:15:00
7:35 PM,64.4,33.8,32,29.85,10.0,NNW,10.4,17.3,N/A,,Clear,340,2014-04-22 23:35:00
7:55 PM,62.6,33.8,34,29.86,10.0,NNW,9.2,-,N/A,,Clear,340,2014-04-22 23:55:00
8:15 PM,60.8,33.8,36,29.86,10.0,NNW,9.2,16.1,N/A,,Clear,340,2014-04-23 00:15:00
8:35 PM,60.8,33.8,36,29.87,10.0,North,10.4,17.3,N/A,,Clear,350,2014-04-23 00:35:00
8:55 PM,59.0,33.8,39,29.89,10.0,North,15.0,20.7,N/A,,Clear,360,2014-04-23 00:55:00
9:15 PM,59.0,32.0,36,29.90,10.0,North,8.1,16.1,N/A,,Clear,350,2014-04-23 01:15:00
9:35 PM,55.4,32.0,41,29.91,10.0,North,10.4,16.1,N/A,,Clear,350,2014-04-23 01:35:00
9:55 PM,55.4,33.8,44,29.92,10.0,North,8.1,-,N/A,,Clear,350,2014-04-23 01:55:00
10:15 PM,53.6,32.0,44,29.93,10.0,North,9.2,-,N/A,,Clear,360,2014-04-23 02:15:00
10:35 PM,53.6,32.0,44,29.94,10.0,North,10.4,17.3,N/A,,Clear,360,2014-04-23 02:35:00
10:55 PM,53.6,33.8,47,29.95,10.0,North,9.2,17.3,N/A,,Clear,350,2014-04-23 02:55:00
11:15 PM,51.8,33.8,50,29.95,10.0,North,8.1,16.1,N/A,,Clear,360,2014-04-23 03:15:00
11:35 PM,51.8,33.8,50,29.96,10.0,North,10.4,17.3,N/A,,Clear,360,2014-04-23 03:35:00
11:55 PM,50.0,32.0,50,29.97,10.0,North,13.8,19.6,N/A,,Clear,360,2014-04-23 03:55:00